Theta_e
299 299 306 304 303 304 306 308 309 309 308 306 303 302 300 300 300 301 302 303 304 305 304 305 305 305 304 308 308 298 298 300 301 304 308 314 315 316 316 315 314 315 312 309 307 306 308
298 298 300 303 304 305 307 308 309 311 311 312 311 309 304 303 301 301 300 302 302 303 303 303 303 304 305 309 299 297 298 300 301 304 306 309 313 314 315 313 313 312 311 309 307 307 305
299 298 298 299 299 300 300 303 308 314 315 316 316 315 313 308 303 302 301 300 300 302 303 303 302 303 307 307 298 297 298 299 300 301 306 305 310 312 312 311 309 309 311 309 308 307 307
310 309 307 306 307 309 309 309 311 314 316 317 317 317 315 313 308 303 303 303 303 303 304 303 303 303 309 299 298 298 298 300 300 299 301 302 307 308 311 308 308 310 310 312 311 307 305
318 318 318 318 318 318 318 318 318 318 318 319 319 318 318 315 310 304 304 304 305 306 304 303 303 305 309 298 300 297 296 299 300 300 299 299 305 309 308 310 312 312 312 313 308 306 306
319 319 319 319 318 318 318 318 319 319 319 319 320 319 319 318 311 305 305 304 303 302 300 300 301 306 302 301 298 296 296 297 301 302 303 303 304 308 308 311 313 316 312 310 310 302 301
319 319 320 321 321 321 319 318 318 318 319 319 320 320 320 320 311 305 305 309 311 311 307 305 303 302 300 299 296 298 295 298 300 303 304 302 304 306 308 309 306 303 304 305 306 297 299
321 321 321 321 321 320 321 321 320 319 318 318 319 320 320 321 311 307 308 308 307 304 308 301 300 299 297 297 300 299 296 300 301 304 302 303 305 301 297 297 299 300 301 304 302 296 294
321 321 320 320 319 319 319 319 320 319 320 319 320 320 321 321 309 307 306 305 304 307 309 307 301 300 299 297 300 300 297 298 301 303 303 306 304 296 296 297 297 299 300 302 299 296 296
319 319 319 318 318 318 318 318 318 318 319 320 320 320 320 321 314 306 306 303 303 307 316 314 305 300 298 298 300 295 294 297 299 302 300 301 296 296 296 297 297 299 295 294 295 296 303
316 315 315 315 316 316 318 318 318 318 319 319 319 320 320 319 313 310 303 305 305 310 334 310 304 297 298 298 297 297 293 296 301 301 298 304 296 295 296 296 294 296 292 293 294 295 296
312 312 312 312 312 313 314 315 315 316 317 318 318 318 318 316 311 304 300 307 309 323 335 312 304 303 303 300 299 297 296 295 295 296 296 297 292 294 295 292 292 292 293 293 294 295 301
308 308 309 310 310 310 310 311 312 312 314 316 318 317 317 316 318 311 301 310 322 327 316 315 310 304 304 308 302 299 300 300 303 308 315 299 295 291 292 293 292 292 294 306 315 306 312
307 307 307 308 308 309 309 309 309 309 310 312 316 316 316 311 306 309 308 315 325 320 322 307 305 307 308 305 303 300 301 305 298 297 304 315 315 293 292 294 296 293 295 312 323 324 320
303 304 305 305 307 307 306 307 308 308 309 309 311 315 316 306 303 301 308 323 320 319 314 312 317 317 319 302 299 302 306 310 304 297 308 318 313 292 291 291 292 294 293 292 297 303 302
302 302 303 304 304 304 304 305 306 307 308 308 309 313 314 308 298 305 307 319 319 317 306 307 321 318 319 317 306 309 315 307 300 295 294 300 310 294 291 290 291 291 291 296 296 310 316
301 301 301 302 303 303 303 303 304 305 306 308 310 313 303 298 300 305 310 315 317 312 303 303 318 319 315 317 317 316 314 308 299 293 293 295 302 299 291 292 297 289 291 291 297 303 310
302 301 301 301 301 301 300 301 302 303 306 308 308 310 305 298 310 311 314 314 304 304 299 302 302 311 313 316 312 311 313 308 295 293 293 294 301 308 307 292 290 293 295 294 302 306 301
300 300 300 300 300 300 300 301 301 301 304 306 307 309 305 302 311 312 313 312 303 304 302 302 303 300 300 306 308 308 304 293 293 293 297 295 302 307 309 292 289 291 292 294 295 292 302
299 299 300 299 299 299 299 300 301 301 301 305 307 307 310 305 307 309 312 312 312 299 301 299 303 299 302 302 301 303 306 298 292 292 293 297 302 307 312 312 303 296 292 292 293 298 299
299 298 298 298 299 298 298 298 299 299 301 303 307 306 307 309 310 310 308 310 310 309 303 301 301 301 302 304 304 305 304 302 293 292 294 297 300 302 302 303 301 300 300 294 292 293 301
299 299 299 298 298 299 299 297 297 298 298 302 305 307 306 308 306 307 308 308 307 307 309 308 303 307 308 305 307 310 308 307 306 296 295 296 298 298 299 300 299 298 298 297 295 295 294
297 298 299 299 299 298 298 297 296 297 298 300 302 302 303 304 304 305 305 306 305 305 306 306 307 307 307 305 303 303 302 302 304 298 297 296 295 297 301 297 295 298 298 296 296 296 295
296 297 298 298 298 297 298 297 297 297 297 299 299 301 301 304 304 304 304 305 305 306 306 306 306 305 304 295 295 296 296 297 299 299 297 295 294 296 299 298 301 301 291 289 290 292 295
296 297 297 297 297 297 297 297 297 296 297 298 299 298 299 301 302 303 305 304 304 304 304 305 305 296 295 296 301 303 302 297 296 296 296 295 295 297 298 300 300 299 289 289 289 292 292
295 296 296 295 296 297 297 297 297 297 296 297 297 298 298 299 301 300 301 302 301 301 304 302 291 292 292 298 301 303 304 303 303 292 291 294 294 295 297 297 300 294 286 285 287 296 286
293 293 294 294 295 296 297 296 296 297 296 296 296 296 297 298 298 300 301 300 300 301 302 299 295 292 292 297 300 303 302 301 303 301 293 292 293 294 295 297 296 294 286 285 295 294 285
293 293 295 295 296 296 296 296 295 296 296 296 296 296 297 298 298 298 299 300 300 299 299 298 297 293 293 297 299 300 302 301 299 300 298 296 293 293 293 295 295 286 284 291 289 284 284
293 293 294 295 295 296 296 296 296 296 296 296 295 296 296 298 298 296 297 297 298 299 300 296 300 298 296 297 299 299 299 297 298 300 294 296 296 297 294 294 287 285 289 286 283 285 284
Wind_Speed
19 19 20 20 21 22 22 23 24 26 26 26 25 23 22 20 20 17 14 13 11 11 13 12 12 12 7 7 2 8 11 8 6 3 5 7 9 6 8 5 5 8 6 4 5 6 5
18 18 19 20 20 20 20 22 23 25 28 31 32 30 28 26 23 19 16 16 14 14 12 12 13 12 8 8 3 11 9 8 9 6 3 5 5 4 4 4 7 3 6 7 8 8 7
18 18 19 20 21 23 23 23 23 25 27 28 30 30 30 30 30 21 17 17 18 17 13 10 10 6 8 7 5 13 10 5 7 7 5 5 4 6 3 3 3 6 4 5 11 11 6
20 21 22 22 23 24 24 24 24 25 27 29 31 33 33 31 29 21 23 24 21 17 12 9 5 4 4 2 5 12 12 4 6 4 6 4 3 4 2 7 3 5 5 5 11 9 4
20 21 21 22 22 23 24 25 26 27 28 29 30 32 34 33 31 20 27 22 12 7 6 5 4 3 3 2 2 8 10 8 10 4 3 2 1 2 4 5 5 8 8 11 5 11 4
18 19 20 21 22 22 23 23 24 25 27 28 30 33 35 36 31 23 26 12 5 2 1 2 2 4 1 1 4 5 5 4 2 4 2 3 3 5 6 8 6 6 7 8 10 7 10
17 18 18 19 20 23 23 24 25 25 26 28 31 32 34 37 28 24 24 6 4 4 4 3 2 5 1 5 2 1 3 0 2 4 4 1 6 10 8 12 8 7 10 14 5 5 7
18 19 20 20 22 22 23 23 24 26 27 29 30 32 34 36 24 23 12 6 4 3 10 3 3 4 2 3 3 1 5 4 5 6 4 5 11 2 2 2 4 8 12 15 4 4 4
17 18 19 21 21 22 23 24 25 27 28 27 29 31 32 33 15 14 10 7 3 3 6 2 1 3 1 3 3 2 7 2 4 6 9 11 3 4 3 4 6 9 13 12 8 4 17
18 19 20 20 20 21 22 24 25 26 25 26 27 28 30 32 6 13 2 7 2 0 4 4 2 2 1 2 2 3 4 4 4 4 3 8 5 3 5 6 5 8 4 2 4 4 6
19 19 21 21 21 22 21 23 25 26 25 24 24 25 25 22 13 8 6 8 2 3 7 4 2 1 1 3 4 2 1 2 5 4 3 2 4 4 5 2 3 2 3 2 3 6 10
17 18 19 21 22 23 23 24 25 26 27 25 25 24 24 10 10 7 11 6 2 4 8 4 3 2 4 5 3 0 1 1 2 2 4 3 1 2 2 5 2 5 2 5 3 3 6
17 19 19 20 22 23 23 23 25 26 27 26 25 24 23 13 8 11 7 4 5 6 2 3 3 4 3 4 4 3 3 6 4 4 9 6 4 3 1 2 2 3 3 3 4 4 8
19 20 21 22 21 24 25 25 25 26 28 27 25 26 18 14 11 9 3 4 8 9 9 3 1 6 6 1 4 4 4 5 7 6 5 6 5 10 12 6 1 7 3 4 6 6 10
21 21 22 22 23 24 24 25 26 27 29 28 26 17 13 7 6 3 4 8 7 8 4 2 6 9 9 2 3 4 7 7 1 9 6 4 3 3 3 0 2 8 7 4 4 13 8
21 22 22 22 23 23 25 26 25 26 27 27 18 14 11 7 1 4 4 11 12 6 1 3 7 6 10 5 5 4 5 3 4 4 3 2 7 4 5 3 7 5 2 3 2 4 7
21 22 23 23 23 24 25 25 25 24 26 21 7 5 1 1 3 3 5 8 16 4 3 5 10 13 9 2 9 8 7 2 2 3 4 1 5 4 3 11 9 6 4 4 1 4 4
21 22 22 24 25 26 26 25 25 24 24 12 6 5 1 5 4 4 9 12 4 1 1 4 3 6 7 6 5 8 9 1 4 7 4 2 3 6 8 5 4 7 9 14 6 7 7
22 23 23 24 25 25 27 26 26 25 19 12 5 7 3 4 6 11 15 10 2 4 0 1 2 0 6 2 4 11 7 1 5 6 6 5 4 5 5 2 0 6 10 13 12 3 15
25 25 25 25 26 26 25 26 25 22 20 13 4 4 4 4 3 6 14 14 10 0 3 4 3 4 5 7 12 7 7 5 6 6 6 6 7 13 15 19 1 7 12 19 15 7 9
26 25 25 26 26 25 25 23 25 23 19 10 3 5 6 5 7 9 5 4 6 9 7 9 5 12 8 5 3 8 10 7 7 8 7 6 8 16 24 21 18 19 21 18 24 29 13
28 28 27 26 25 25 24 23 24 20 23 7 4 5 3 10 13 16 14 12 18 19 13 7 9 14 7 9 15 7 9 7 5 8 10 5 5 6 14 16 20 22 22 20 26 30 29
34 31 30 27 26 25 24 23 23 18 15 7 8 8 5 7 11 13 13 19 19 15 13 17 18 12 13 18 14 16 10 11 6 10 13 7 5 4 17 4 11 15 21 23 21 21 22
33 31 28 24 24 25 22 20 20 20 16 15 15 12 4 13 10 11 13 20 18 18 21 17 16 8 3 3 3 5 6 10 11 14 9 7 7 2 8 8 11 3 5 2 9 15 18
30 30 27 26 25 24 22 19 20 20 19 17 14 5 3 9 7 10 14 18 18 12 16 19 14 2 3 2 4 5 5 4 7 12 13 9 7 4 4 9 18 15 5 2 1 5 7
30 28 27 27 26 24 24 22 18 16 16 15 14 14 6 5 5 13 9 2 10 16 13 3 2 4 2 2 4 7 6 16 4 3 5 10 9 6 5 6 10 5 4 1 1 7 9
28 27 28 28 27 24 24 21 16 14 16 16 19 17 12 8 10 15 13 13 9 8 8 2 0 1 1 3 4 4 8 6 4 9 7 4 6 15 13 6 10 3 9 3 1 4 7
27 28 26 24 22 19 19 18 16 15 16 18 19 17 16 7 11 17 19 16 10 5 10 2 4 3 3 4 3 5 4 5 2 10 5 9 8 6 6 6 11 10 5 5 1 3 1
26 27 25 22 19 18 18 20 17 17 17 18 18 17 15 8 6 18 23 23 24 24 12 5 6 6 6 5 4 4 5 3 7 7 7 5 7 3 10 6 4 9 3 2 2 3 1
Wind_Direction
28 28 29 29 28 27 25 24 23 20 18 15 10 6 1 354 347 332 323 330 320 313 314 310 311 317 312 242 289 333 342 341 328 283 237 229 218 208 214 185 193 229 178 175 165 167 184
32 28 25 24 22 23 23 21 20 18 17 15 11 6 1 354 348 336 321 307 312 307 315 317 315 315 275 265 6 348 351 356 355 329 304 271 269 228 170 196 227 141 183 173 180 178 185
32 30 27 22 18 15 16 17 18 17 16 14 12 8 3 358 349 338 332 318 305 300 281 321 317 316 274 325 356 359 354 9 14 14 322 355 333 258 142 154 129 150 183 219 212 195 195
35 33 30 25 21 18 14 14 14 14 12 9 7 5 1 356 353 346 334 321 305 289 276 280 305 289 279 341 344 353 356 324 13 36 80 36 66 95 336 109 138 231 259 244 155 180 158
29 26 25 21 19 16 12 9 8 7 6 4 2 1 0 356 352 345 339 330 331 308 274 245 258 241 233 48 12 352 4 346 322 354 59 79 50 123 158 213 231 212 268 219 191 200 162
19 17 14 11 7 5 2 1 360 360 359 357 357 357 357 354 352 348 344 332 356 66 342 233 245 240 120 354 319 339 354 351 346 308 283 268 241 227 219 210 253 311 246 258 261 173 228
2 1 2 0 359 355 351 351 351 351 351 351 352 353 355 353 350 356 354 322 295 192 27 296 354 290 276 307 222 333 351 296 198 217 252 100 247 236 263 236 291 282 273 271 256 159 226
355 351 350 350 346 347 345 341 342 343 343 344 346 349 350 353 348 359 17 42 50 322 308 208 244 241 273 319 260 174 338 219 198 220 184 212 239 103 2 329 276 260 272 273 243 143 242
355 350 345 342 343 343 341 340 338 338 337 337 339 342 345 351 348 6 40 53 351 345 269 182 264 300 8 295 311 5 336 312 260 237 221 247 60 132 206 212 237 241 252 274 278 296 237
347 346 339 342 345 344 341 339 339 339 337 335 333 337 341 347 347 341 26 341 328 291 283 158 168 94 205 335 245 15 7 325 212 278 240 265 69 248 253 255 226 266 38 303 279 297 288
341 346 346 345 343 340 340 336 335 333 329 329 328 332 333 339 310 316 320 326 306 230 307 38 92 348 330 277 336 132 16 220 263 255 208 208 169 197 242 257 177 16 21 333 280 268 311
342 343 345 346 344 341 340 340 339 336 331 327 322 327 326 333 304 266 322 316 252 252 245 154 155 221 263 189 186 301 283 200 350 232 246 294 42 249 6 91 59 112 251 230 253 271 250
341 340 340 341 340 336 339 341 341 342 340 333 326 324 317 301 297 297 319 257 272 243 134 178 197 198 219 243 203 188 212 218 225 277 277 162 190 109 185 195 153 212 256 300 245 207 253
341 340 340 340 336 334 336 337 340 340 340 337 330 322 306 286 278 276 226 247 252 270 259 93 277 279 271 21 207 195 225 259 208 213 261 259 244 176 166 204 272 193 284 235 279 284 317
343 343 342 339 342 339 333 334 337 339 337 335 336 321 287 274 297 238 226 221 251 291 10 281 273 270 272 211 298 269 235 270 287 205 237 258 218 91 210 335 254 147 196 121 295 270 284
342 340 340 341 337 333 334 334 333 336 336 339 334 312 282 293 251 215 253 249 269 323 296 268 273 258 286 296 269 227 250 135 191 217 153 35 280 180 128 218 222 253 21 168 168 249 248
335 336 336 336 334 336 336 336 334 332 335 341 315 303 311 267 166 225 232 249 278 301 232 220 246 279 256 260 267 268 267 182 154 154 221 256 228 143 172 203 182 175 219 207 238 239 264
330 331 331 329 331 332 334 336 340 336 339 340 305 275 281 160 257 261 259 265 359 300 81 259 299 265 211 222 216 252 258 281 91 156 168 197 311 263 258 88 20 278 231 192 199 196 223
328 328 327 326 326 328 332 333 333 339 341 325 289 277 256 186 253 243 254 263 248 288 51 321 309 258 359 188 275 265 282 145 177 176 205 150 216 290 207 223 137 219 215 230 240 313 231
325 325 324 325 325 326 325 329 333 333 335 318 284 284 206 203 271 277 272 284 282 155 218 183 238 200 231 240 226 242 244 197 199 208 181 144 211 225 259 277 106 222 217 207 209 220 241
317 318 320 321 319 321 323 324 323 326 331 311 243 259 288 260 235 234 203 250 243 277 230 201 213 229 241 257 221 243 251 244 210 203 193 181 249 234 250 273 283 272 253 213 215 225 226
310 308 305 312 315 316 317 323 322 322 320 280 280 303 243 279 293 284 271 260 275 279 258 249 245 279 257 235 263 281 294 285 267 182 196 208 273 297 274 259 258 264 265 248 242 241 244
306 307 305 298 303 308 311 312 313 311 319 289 283 290 270 270 288 275 264 276 278 285 279 271 274 288 280 262 254 266 287 273 247 176 195 192 220 237 274 348 314 279 253 241 246 249 241
303 302 302 304 305 298 304 310 311 310 300 289 284 290 254 282 279 265 271 285 282 276 277 278 283 242 270 121 266 253 249 255 241 228 209 192 199 230 281 304 263 257 172 225 275 274 250
301 301 300 302 303 301 291 297 307 306 297 303 295 295 289 269 251 297 288 288 293 297 289 280 273 7 63 5 283 275 228 240 237 227 215 210 189 249 256 260 289 292 44 36 343 302 279
301 302 300 301 300 297 295 290 298 313 318 306 299 285 256 286 260 271 270 260 305 296 281 277 74 59 41 262 254 258 273 293 206 202 219 219 231 224 209 246 270 46 119 162 290 287 351
301 301 298 293 296 295 294 287 282 299 308 308 291 281 271 273 266 265 269 288 290 278 286 295 229 202 195 221 243 261 266 285 251 250 178 194 216 228 237 257 275 28 135 152 258 349 351
298 297 302 297 290 295 302 295 285 291 303 311 300 284 260 270 275 269 270 266 266 236 267 274 267 189 196 230 249 274 244 281 272 275 247 207 187 206 205 231 260 123 105 188 12 341 355
292 296 302 305 297 297 299 300 287 291 297 301 300 303 289 262 288 297 277 271 257 266 271 208 259 219 215 240 237 272 247 236 289 271 173 235 213 220 201 222 89 193 184 164 63 310 176